1509357600.72,38150,8.56,71994.3,-12.39,-14.65,-14.79,0,*6B
1509357601.96,38151,8.56,71980.8,-12.35,-14.65,-14.61,0,*6F
1509357603.23,38152,8.56,71972.5,-12.39,-14.55,-14.51,0,*60
1509357604.44,38153,8.56,71976.0,-12.39,-14.33,-14.37,0,*61
1509357605.7,38154,8.56,71988.3,-12.39,-14.47,-14.65,0,*62
1509357606.94,38155,8.56,71986.5,-12.39,-14.65,-14.83,0,*6B
1509357608.15,38156,8.56,71988.5,-12.39,-15.07,-15.11,0,*67
1509357609.44,38157,8.56,71968.0,-12.41,-14.83,-14.75,0,*67
1509357610.67,38158,8.56,71924.3,-12.41,-14.61,-14.69,0,*69
1509357611.92,38159,8.56,71894.0,-12.39,-14.51,-14.65,0,*68
1509357613.2,38160,8.56,71928.3,-12.41,-14.75,-14.75,0,*6A
1509357614.5,38161,8.56,71930.5,-12.41,-14.47,-14.47,0,*6B
1509357615.75,38162,8.56,71914.0,-12.41,-14.15,-14.15,0,*68
1509357617.01,38163,8.56,71928.8,-12.41,-14.43,-14.29,0,*65
1509357618.24,38164,8.56,71932.5,-12.41,-14.33,-14.29,0,*65
1509357619.49,38165,8.56,71940.3,-12.41,-14.23,-14.15,0,*6A
1509357620.73,38166,8.56,71938.5,-12.41,-14.23,-14.15,0,*69
1509357621.98,38167,8.56,71942.8,-12.41,-14.15,-14.15,0,*6D
1509357623.22,38168,8.56,71926.0,-12.41,-14.23,-14.15,0,*67
1509357624.45,38169,8.56,71922.0,-12.41,-14.11,-14.11,0,*63
1509357625.72,38170,8.56,71920.3,-12.35,-13.93,-14.01,0,*64
1509357627.02,38171,8.56,71922.5,-12.35,-14.05,-14.01,0,*6D
1509357628.27,38172,8.56,71920.0,-12.35,-14.15,-14.15,0,*6A
1509357629.51,38173,8.56,71924.5,-12.35,-14.37,-14.33,0,*6F
1509357630.73,38174,8.56,71932.8,-12.33,-14.33,-14.37,0,*6E
1509357632.0,38175,8.56,71942.0,-12.35,-14.51,-14.37,0,*6D
1509357633.21,38176,8.56,71954.0,-12.39,-14.11,-14.11,0,*62
1509357634.46,38177,8.56,71950.8,-12.39,-14.51,-14.29,0,*6C
1509357635.7,38178,8.56,71950.3,-12.35,-14.37,-14.33,0,*64
1509357636.97,38179,8.56,71962.5,-12.35,-14.61,-14.51,0,*62
1509357638.27,38180,8.56,71960.5,-12.35,-14.47,-14.47,0,*67
1509357639.54,38181,8.56,71968.8,-12.39,-14.79,-14.55,0,*64
1509357640.8,38182,8.56,71992.8,-12.39,-14.43,-14.43,0,*69
1509357642.07,38183,8.56,71996.5,-12.39,-14.55,-14.55,0,*68
1509357643.32,38184,8.56,71990.3,-12.35,-15.01,-15.07,0,*65
1509357644.61,38185,8.56,71972.0,-12.35,-14.79,-14.75,0,*6E
1509357645.85,38186,8.56,71944.5,-12.35,-14.33,-14.23,0,*60
1509357647.1,38187,8.56,71944.8,-12.39,-14.11,-14.05,0,*69
1509357648.31,38188,8.56,71954.8,-12.39,-14.19,-14.11,0,*6B
1509357649.56,38189,8.56,71968.5,-12.39,-14.15,-14.05,0,*63
1509357650.78,38190,8.56,71974.8,-12.39,-14.11,-14.11,0,*6A
1509357652.0,38191,8.56,71998.5,-12.39,-14.19,-14.19,0,*6B
1509357653.3,38192,8.56,72002.5,-12.35,-14.05,-14.05,0,*64
1509357654.53,38193,8.56,72000.0,-12.35,-13.93,-13.93,0,*65
1509357655.76,38194,8.56,72006.3,-12.39,-13.93,-13.83,0,*6F
1509357657.0,38195,8.56,72006.3,-12.35,-13.65,-13.51,0,*64
1509357658.27,38196,8.56,72012.3,-12.35,-13.65,-13.61,0,*64
1509357659.53,38197,8.56,72018.5,-12.35,-13.79,-13.73,0,*6B
1509357660.78,38198,8.56,72026.5,-12.35,-13.93,-13.79,0,*6A
1509357662.02,38199,8.56,72030.3,-12.31,-13.73,-13.65,0,*6C
1509357663.25,38200,8.56,72032.5,-12.33,-13.93,-13.79,0,*6E
1509357664.46,38201,8.56,72034.3,-12.33,-13.93,-13.93,0,*6B
1509357665.67,38202,8.56,72036.8,-12.33,-13.73,-13.73,0,*68
1509357666.91,38203,8.56,72036.8,-12.31,-13.65,-13.73,0,*6C
1509357668.15,38204,8.56,72038.8,-12.33,-13.37,-13.23,0,*6B
1509357669.39,38205,8.56,72040.3,-12.31,-13.07,-12.89,0,*6A
1509357670.66,38206,8.56,72042.0,-12.31,-13.33,-13.23,0,*6F
1509357671.93,38207,8.56,72040.5,-12.31,-13.61,-13.51,0,*6C
1509357673.19,38208,8.56,72042.8,-12.31,-13.61,-13.47,0,*64
1509357674.43,38209,8.56,72044.0,-12.29,-13.15,-13.01,0,*6D
1509357675.66,38210,8.56,72040.5,-12.31,-13.15,-13.07,0,*6A
1509357676.93,38211,8.56,72042.3,-12.31,-13.73,-13.61,0,*6B
1509357678.17,38212,8.56,72038.0,-12.29,-13.43,-13.29,0,*6E
1509357679.44,38213,8.56,72036.8,-12.29,-13.33,-13.29,0,*68
1509357680.69,38214,8.56,72034.0,-12.29,-13.29,-13.19,0,*67
1509357681.95,38215,8.56,72030.5,-12.27,-13.43,-13.29,0,*67
1509357683.2,38216,8.56,72028.0,-12.27,-13.43,-13.19,0,*67
1509357684.46,38217,8.56,72034.5,-12.27,-13.43,-13.29,0,*65
1509357685.71,38218,8.56,72036.0,-12.27,-13.43,-13.19,0,*69
1509357686.97,38219,8.56,72042.0,-12.27,-13.55,-13.33,0,*67
1509357688.24,38220,8.56,72042.3,-12.27,-13.43,-13.33,0,*6A
1509357689.5,38221,8.56,72042.8,-12.27,-13.43,-13.29,0,*60
1509357690.76,38222,8.56,72048.3,-12.27,-13.43,-13.29,0,*63
1509357692.0,38223,8.56,72056.8,-12.23,-13.69,-13.55,0,*65
1509357693.27,38224,8.56,72062.0,-12.27,-13.55,-13.33,0,*69
1509357694.54,38225,8.56,72064.0,-12.27,-13.33,-13.19,0,*60
1509357695.77,38226,8.56,72064.3,-12.23,-13.15,-13.07,0,*6C
1509357697.0,38227,8.56,72066.5,-12.23,-13.23,-13.15,0,*6B
1509357698.26,38228,8.56,72070.3,-12.23,-13.15,-12.83,0,*6F
1509357699.52,38229,8.56,72074.5,-12.23,-13.15,-12.83,0,*6E
1509357700.76,38230,8.56,72082.8,-12.23,-13.23,-13.07,0,*6E
1509357702.02,38231,8.56,72090.3,-12.23,-13.29,-13.11,0,*62
1509357703.27,38232,8.56,72102.5,-12.23,-13.65,-13.79,0,*67
1509357704.54,38233,8.56,72112.8,-12.23,-13.97,-14.23,0,*63
1509357705.84,38234,8.56,72104.5,-12.23,-14.83,-14.83,0,*6C
1509357707.08,38235,8.56,72090.3,-12.23,-15.15,-15.25,0,*6E
1509357708.38,38236,8.56,72060.8,-12.23,-14.83,-14.83,0,*6E
1509357709.67,38237,8.56,72066.5,-12.23,-14.83,-14.83,0,*6F
1509357710.95,38238,8.56,72046.0,-12.27,-15.35,-15.49,0,*6F
1509357712.23,38239,8.56,72022.0,-12.23,-15.57,-15.57,0,*61
1509357713.52,38240,8.56,72014.8,-12.27,-15.21,-15.21,0,*6B
1509357714.8,38241,8.56,72004.8,-12.27,-15.01,-14.97,0,*64
1509357716.03,38242,8.56,71986.0,-12.29,-15.29,-15.29,0,*67
1509357717.3,38243,8.56,71984.5,-12.31,-15.25,-15.35,0,*6E
1509357718.56,38244,8.56,71974.5,-12.31,-15.11,-15.01,0,*69
1509357719.79,38245,8.56,71976.0,-12.33,-15.01,-14.89,0,*6A
1509357721.07,38246,8.56,71976.3,-12.31,-14.15,-14.05,0,*6B
1509357722.32,38247,8.56,71986.0,-12.31,-14.15,-14.33,0,*6F
1509357723.55,38248,8.56,72006.5,-12.33,-14.23,-14.23,0,*66
1509357724.81,38249,8.56,72028.3,-12.31,-14.61,-14.51,0,*66
1509357726.11,38250,8.56,72028.8,-12.31,-14.51,-14.51,0,*6D
1509357727.39,38251,8.56,72022.8,-12.31,-14.05,-14.15,0,*6D
1509357728.64,38252,8.56,72036.5,-12.31,-14.19,-14.33,0,*67
1509357729.91,38253,8.56,72056.5,-12.31,-14.33,-14.51,0,*6A
1509357731.13,38254,8.56,72044.0,-12.33,-14.89,-14.89,0,*6B
1509357732.42,38255,8.56,72054.5,-12.31,-14.79,-14.93,0,*6C
1509357733.69,38256,8.56,72038.8,-12.31,-14.75,-14.65,0,*6A
1509357734.96,38257,8.56,71988.5,-12.31,-15.25,-15.35,0,*6B
1509357736.17,38258,8.56,71966.0,-12.33,-15.53,-15.63,0,*64
1509357737.45,38259,8.56,71982.3,-12.31,-15.35,-15.49,0,*6F
1509357738.67,38260,8.56,71988.5,-12.33,-15.75,-15.75,0,*6C
1509357739.91,38261,8.56,71984.5,-12.33,-15.95,-15.89,0,*60
1509357741.2,38262,8.56,71934.3,-12.35,-16.13,-16.23,0,*6B
1509357742.45,38263,8.56,71892.8,-12.35,-15.95,-15.95,0,*69
1509357743.69,38264,8.56,71894.0,-12.39,-16.09,-15.99,0,*68
1509357744.93,38265,8.56,71872.8,-12.39,-15.81,-15.67,0,*6B
1509357746.19,38266,8.56,71904.8,-12.43,-15.57,-15.43,0,*68
1509357747.42,38267,8.56,71960.3,-12.43,-15.49,-15.49,0,*6C
1509357748.65,38268,8.56,71986.0,-12.43,-15.01,-15.11,0,*62
1509357749.89,38269,8.56,72004.0,-12.43,-14.75,-14.89,0,*61
1509357751.13,38270,8.56,72014.5,-12.43,-14.61,-14.55,0,*6D
1509357752.4,38271,8.56,71982.0,-12.43,-14.55,-14.55,0,*6B
1509357753.63,38272,8.56,71978.3,-12.43,-14.69,-14.75,0,*65
1509357754.88,38273,8.56,72010.3,-12.43,-15.01,-15.01,0,*69
1509357756.09,38274,8.56,72032.0,-12.43,-14.69,-14.69,0,*6E
1509357757.31,38275,8.56,72044.0,-12.43,-14.23,-14.23,0,*6F
1509357758.57,38276,8.56,72052.8,-12.43,-13.87,-13.83,0,*68
1509357759.84,38277,8.56,72070.0,-12.43,-13.83,-13.83,0,*6D
1509357761.11,38278,8.56,72080.0,-12.43,-13.83,-14.01,0,*6F
1509357762.34,38279,8.56,72068.3,-12.39,-14.69,-14.75,0,*63
1509357763.63,38280,8.56,72070.5,-12.41,-14.47,-14.43,0,*63
1509357764.87,38281,8.56,72064.5,-12.41,-14.61,-14.61,0,*66
1509357766.08,38282,8.56,72062.8,-12.39,-14.65,-14.65,0,*6A
1509357767.32,38283,8.56,72058.8,-12.39,-14.65,-14.51,0,*6C
1509357768.56,38284,8.56,72042.3,-12.35,-14.33,-14.37,0,*64
1509357769.8,38285,8.56,72052.3,-12.35,-14.33,-14.37,0,*65
1509357771.06,38286,8.56,72060.3,-12.39,-14.43,-14.43,0,*6E
1509357772.3,38287,8.56,72056.3,-12.35,-15.07,-15.07,0,*63
1509357773.53,38288,8.56,72058.8,-12.35,-15.11,-15.07,0,*6B
1509357774.8,38289,8.56,72058.3,-12.39,-14.97,-14.97,0,*61
1509357776.06,38290,8.56,72046.0,-12.35,-14.75,-14.65,0,*64
1509357777.3,38291,8.56,72050.5,-12.33,-15.07,-15.01,0,*64
1509357778.54,38292,8.56,72028.0,-12.33,-14.51,-14.33,0,*65
1509357779.79,38293,8.56,72018.0,-12.33,-14.15,-14.01,0,*65
1509357781.05,38294,8.56,72026.5,-12.33,-13.87,-13.87,0,*67
1509357782.31,38295,8.56,72034.3,-12.33,-13.87,-13.79,0,*67
1509357783.52,38296,8.56,72036.8,-12.33,-13.73,-13.51,0,*65
1509357784.76,38297,8.56,72058.3,-12.31,-13.65,-13.51,0,*61
1509357785.97,38298,8.56,72056.3,-12.29,-13.73,-13.69,0,*6B
1509357787.25,38299,8.56,72066.0,-12.29,-13.97,-13.97,0,*61
1509357788.5,38300,8.56,72062.0,-12.29,-14.01,-14.15,0,*65
1509357789.72,38301,8.56,72060.5,-12.29,-14.33,-14.29,0,*6A
1509357791.0,38302,8.56,72060.3,-12.29,-14.01,-14.01,0,*62
1509357792.24,38303,8.56,72062.5,-12.29,-14.01,-14.11,0,*62
1509357793.51,38304,8.56,72070.8,-12.29,-13.97,-13.83,0,*61
1509357794.75,38305,8.56,72078.5,-12.27,-13.73,-13.73,0,*6B
1509357796.03,38306,8.56,72070.8,-12.27,-14.43,-14.43,0,*68
1509357797.28,38307,8.56,72064.3,-12.27,-14.19,-14.15,0,*65
1509357798.54,38308,8.56,72068.0,-12.27,-14.43,-14.29,0,*6A
1509357799.78,38309,8.56,72058.0,-12.23,-14.11,-14.11,0,*63
1509357801.08,38310,8.56,72058.5,-12.23,-13.97,-13.97,0,*6B
1509357802.31,38311,8.56,72052.5,-12.23,-14.29,-14.11,0,*61
1509357803.59,38312,8.56,72046.8,-12.23,-14.15,-13.97,0,*64
1509357804.83,38313,8.56,72026.5,-12.23,-14.23,-14.11,0,*69
1509357806.06,38314,8.56,72012.8,-12.23,-14.11,-13.93,0,*62
1509357807.33,38315,8.56,72008.5,-12.23,-14.11,-14.05,0,*6B
1509357808.59,38316,8.56,72002.5,-12.23,-14.05,-13.93,0,*65
1509357809.87,38317,8.56,71984.5,-12.23,-14.15,-14.05,0,*6D
1509357811.1,38318,8.56,71976.5,-12.23,-14.23,-14.11,0,*62
1509357812.38,38319,8.56,71970.5,-12.23,-14.11,-13.97,0,*6B
1509357813.67,38320,8.56,71994.8,-12.23,-13.97,-13.83,0,*6D
1509357814.9,38321,8.56,72002.0,-12.21,-14.05,-13.93,0,*63
1509357816.2,38322,8.56,71994.3,-12.23,-13.97,-13.83,0,*6F
1509357817.4,38323,8.56,71996.8,-12.21,-13.93,-13.93,0,*69
1509357818.63,38324,8.56,71992.8,-12.21,-13.93,-13.87,0,*6B
1509357819.87,38325,8.56,72006.0,-12.21,-14.01,-13.93,0,*63
1509357821.1,38326,8.56,72012.0,-12.21,-13.93,-13.79,0,*68
1509357822.31,38327,8.56,71994.0,-12.21,-13.65,-13.51,0,*6A
1509357823.55,38328,8.56,71984.0,-12.21,-13.73,-13.61,0,*61
1509357824.82,38329,8.56,71994.5,-12.21,-13.61,-13.61,0,*63
1509357826.1,38330,8.56,71988.5,-12.19,-13.87,-13.87,0,*60
1509357827.39,38331,8.56,71976.0,-12.19,-13.87,-13.87,0,*61
1509357828.65,38332,8.56,71990.0,-12.19,-13.79,-13.65,0,*6F
1509357829.91,38333,8.56,71994.5,-12.19,-13.61,-13.47,0,*67
1509357831.17,38334,8.56,71982.0,-12.19,-13.73,-13.61,0,*67
1509357832.39,38335,8.56,71986.5,-12.13,-13.65,-13.51,0,*68
1509357833.6,38336,8.56,72008.5,-12.13,-13.55,-13.51,0,*68
1509357834.81,38337,8.56,72006.0,-12.17,-13.73,-13.73,0,*69
1509357836.04,38338,8.56,72010.5,-12.13,-13.79,-13.69,0,*63
1509357837.26,38339,8.56,72020.3,-12.17,-13.55,-13.55,0,*67
1509357838.51,38340,8.56,72030.8,-12.13,-13.79,-13.79,0,*6D
1509357839.74,38341,8.56,72046.5,-12.13,-13.79,-13.69,0,*6D
1509357840.96,38342,8.56,72050.8,-12.13,-13.51,-13.43,0,*6C
1509357842.19,38343,8.56,72044.0,-12.11,-13.69,-13.69,0,*6C
1509357843.48,38344,8.56,72044.8,-12.11,-14.43,-14.43,0,*6B
1509357844.72,38345,8.56,72052.3,-12.11,-14.23,-14.23,0,*6A
1509357846.0,38346,8.56,72052.3,-12.13,-13.97,-13.97,0,*6B
1509357847.25,38347,8.56,72050.8,-12.11,-13.79,-13.69,0,*69
1509357848.49,38348,8.56,72052.5,-12.11,-13.69,-13.69,0,*67
1509357849.72,38349,8.56,72050.0,-12.11,-13.69,-13.69,0,*66
1509357851.02,38350,8.56,72064.0,-12.11,-13.83,-13.83,0,*6E
1509357852.25,38351,8.56,72070.5,-12.11,-13.55,-13.51,0,*6B
1509357853.49,38352,8.56,72068.8,-12.11,-13.23,-13.15,0,*69
1509357854.7,38353,8.56,72078.5,-12.09,-13.15,-13.11,0,*60
1509357855.93,38354,8.56,72084.3,-12.09,-13.01,-13.11,0,*62
1509357857.14,38355,8.56,72082.5,-12.09,-13.15,-13.15,0,*62
1509357858.4,38356,8.56,72082.8,-12.07,-13.61,-13.73,0,*6C
1509357859.67,38357,8.56,72068.8,-12.07,-13.93,-13.97,0,*6A
1509357860.87,38358,8.56,72070.5,-12.05,-13.47,-13.47,0,*63
1509357862.14,38359,8.56,72074.8,-12.05,-13.37,-13.33,0,*66
1509357863.34,38360,8.56,72076.8,-12.05,-13.47,-13.47,0,*68
1509357864.63,38361,8.56,72070.8,-12.07,-13.79,-13.87,0,*6A
1509357865.87,38362,8.56,72068.3,-12.05,-13.93,-14.05,0,*62
1509357867.14,38363,8.56,72066.5,-12.05,-14.05,-14.05,0,*6B
1509357868.36,38364,8.56,72042.8,-12.05,-14.19,-14.11,0,*64
1509357869.63,38365,8.56,72040.8,-12.05,-14.47,-14.47,0,*6D
1509357870.88,38366,8.56,72028.8,-12.07,-14.37,-14.33,0,*68
1509357872.09,38367,8.56,72018.3,-12.05,-14.33,-14.37,0,*6B
1509357873.36,38368,8.56,72002.5,-12.05,-14.51,-14.51,0,*60
1509357874.67,38369,8.56,71986.0,-12.07,-14.47,-14.47,0,*63
1509357875.97,38370,8.56,71984.3,-12.07,-14.51,-14.47,0,*6C
1509357877.19,38371,8.56,71986.5,-12.05,-14.37,-14.23,0,*6D
1509357878.43,38372,8.56,71990.3,-12.07,-14.23,-14.19,0,*60
1509357879.67,38373,8.56,72006.5,-12.07,-14.23,-14.11,0,*69
1509357880.91,38374,8.56,72012.8,-12.07,-14.33,-14.23,0,*6E
1509357882.15,38375,8.56,72016.3,-12.05,-13.79,-13.65,0,*61
1509357883.44,38376,8.56,72028.3,-12.07,-13.61,-13.61,0,*6D
1509357884.73,38377,8.56,72034.3,-12.07,-13.37,-13.37,0,*6C
1509357885.95,38378,8.56,72048.8,-12.05,-13.23,-13.23,0,*61
1509357887.22,38379,8.56,72062.3,-12.05,-13.61,-13.61,0,*60
1509357888.46,38380,8.56,72070.5,-12.05,-13.33,-13.11,0,*66
1509357889.73,38381,8.56,72076.5,-12.01,-13.43,-13.29,0,*6F
1509357890.99,38382,8.56,72078.8,-12.01,-13.61,-13.55,0,*67
1509357892.26,38383,8.56,72076.3,-12.01,-13.43,-13.33,0,*66
1509357893.5,38384,8.56,72076.3,-11.99,-13.43,-13.33,0,*63
1509357894.74,38385,8.56,72072.3,-11.99,-13.29,-13.43,0,*69
1509357895.99,38386,8.56,72072.0,-11.99,-13.19,-13.29,0,*65
1509357897.2,38387,8.56,72080.3,-11.99,-13.55,-13.43,0,*60
1509357898.45,38388,8.56,72084.0,-11.99,-13.33,-13.19,0,*60
1509357899.66,38389,8.56,72088.0,-11.99,-13.11,-12.97,0,*66
1509357900.88,38390,8.56,72082.3,-11.99,-12.97,-12.97,0,*61
1509357902.13,38391,8.56,72084.0,-11.97,-12.89,-12.89,0,*6E
1509357903.34,38392,8.56,72076.8,-11.99,-12.89,-13.11,0,*63
1509357904.58,38393,8.56,72082.3,-11.97,-13.15,-13.11,0,*68
1509357905.85,38394,8.56,72082.0,-11.95,-13.83,-13.79,0,*6C
1509357907.06,38395,8.56,72088.8,-11.95,-13.65,-13.65,0,*68
1509357908.31,38396,8.56,72086.0,-11.97,-13.51,-13.43,0,*6A
1509357909.55,38397,8.56,72070.8,-11.97,-13.69,-13.55,0,*67
1509357910.79,38398,8.56,72078.8,-11.97,-13.55,-13.43,0,*60
1509357912.03,38399,8.56,72072.0,-11.95,-14.05,-13.93,0,*6C
1509357913.31,38400,8.56,72080.0,-11.91,-13.97,-13.83,0,*62
1509357914.53,38401,8.56,72078.5,-11.95,-14.11,-14.19,0,*6A
1509357915.75,38402,8.56,72060.3,-11.95,-14.37,-14.33,0,*65
1509357917.0,38403,8.56,72048.0,-11.95,-14.51,-14.37,0,*60
1509357918.24,38404,8.56,72044.0,-11.95,-13.79,-13.73,0,*6D
1509357919.5,38405,8.56,72058.8,-11.95,-13.79,-13.79,0,*66
1509357920.75,38406,8.56,72058.0,-11.97,-14.23,-14.23,0,*67
1509357921.97,38407,8.56,72060.3,-11.95,-14.19,-14.11,0,*6C
1509357923.22,38408,8.56,72054.8,-11.95,-13.97,-13.93,0,*6F
1509357924.43,38409,8.56,72052.8,-11.95,-13.93,-13.93,0,*6A
1509357925.7,38410,8.56,72062.3,-11.95,-13.97,-14.05,0,*6E
1509357926.95,38411,8.56,72040.8,-11.95,-14.61,-14.51,0,*60
1509357928.21,38412,8.56,72034.8,-11.91,-14.97,-14.97,0,*64
1509357929.46,38413,8.56,72034.3,-11.95,-14.47,-14.37,0,*66
1509357930.68,38414,8.56,72030.3,-11.95,-14.33,-14.33,0,*66
1509357931.9,38415,8.56,72028.3,-11.95,-14.37,-14.33,0,*63
1509357933.17,38416,8.56,72034.8,-11.97,-14.01,-14.11,0,*67
1509357934.48,38417,8.56,72032.5,-11.97,-13.97,-13.97,0,*67
1509357935.69,38418,8.56,72032.3,-11.95,-13.93,-13.73,0,*64
1509357936.97,38419,8.56,72034.8,-11.95,-14.05,-13.97,0,*67
1509357938.21,38420,8.56,72036.0,-11.95,-13.93,-13.83,0,*60
1509357939.44,38421,8.56,72038.8,-11.91,-13.73,-13.79,0,*6E
1509357940.69,38422,8.56,72038.0,-11.95,-13.83,-13.65,0,*6B
1509357941.94,38423,8.56,72036.0,-11.91,-13.73,-13.61,0,*65
1509357943.18,38424,8.56,72044.5,-11.91,-13.97,-13.93,0,*65
1509357944.39,38425,8.56,72042.8,-11.95,-14.69,-14.69,0,*64
1509357945.66,38426,8.56,72032.5,-11.95,-15.35,-15.35,0,*67
1509357946.88,38427,8.56,72026.8,-11.95,-15.67,-15.71,0,*61
1509357948.18,38428,8.56,71994.3,-11.97,-15.39,-15.39,0,*6B
1509357949.48,38429,8.56,71942.8,-11.97,-14.83,-14.83,0,*6A
1509357950.75,38430,8.56,71796.5,-11.99,-15.43,-15.39,0,*61
1509357951.97,38431,8.56,71720.5,-11.99,-15.75,-15.63,0,*6A
1509357953.24,38432,8.56,71762.0,-12.01,-15.07,-14.93,0,*60
1509357954.53,38433,8.56,71876.5,-12.01,-15.35,-15.43,0,*6C
1509357955.75,38434,8.56,71938.0,-12.05,-15.07,-15.07,0,*6E
1509357957.02,38435,8.56,72008.8,-12.05,-14.83,-14.79,0,*6A
1509357958.27,38436,8.56,71968.3,-12.07,-15.25,-15.25,0,*6E
1509357959.52,38437,8.56,71940.0,-12.07,-15.25,-15.25,0,*6F
1509357960.76,38438,8.56,71894.5,-12.07,-15.25,-15.11,0,*67
1509357961.99,38439,8.56,71928.0,-12.09,-14.79,-14.69,0,*6E
1509357963.28,38440,8.56,71922.8,-12.11,-15.43,-15.57,0,*6D
1509357964.55,38441,8.56,71926.8,-12.11,-14.79,-14.65,0,*64
1509357965.79,38442,8.56,71950.8,-12.09,-14.37,-14.51,0,*63
1509357967.02,38443,8.56,71976.5,-12.11,-14.65,-14.69,0,*67
1509357968.25,38444,8.56,71988.8,-12.11,-14.69,-14.69,0,*6C
1509357969.52,38445,8.56,72004.8,-12.13,-14.55,-14.55,0,*6F
1509357970.78,38446,8.56,72008.0,-12.13,-14.55,-14.51,0,*68
1509357972.0,38447,8.56,72000.5,-12.13,-14.29,-14.29,0,*6D
1509357973.27,38448,8.56,72008.3,-12.17,-14.47,-14.47,0,*66
1509357974.54,38449,8.56,72002.3,-12.13,-14.51,-14.43,0,*60
1509357975.78,38450,8.56,71966.5,-12.17,-14.61,-14.47,0,*6B
1509357977.0,38451,8.56,71962.8,-12.13,-14.23,-14.23,0,*6A
1509357978.24,38452,8.56,71998.0,-12.13,-14.43,-14.37,0,*6A
1509357979.48,38453,8.56,71980.3,-12.13,-14.11,-14.01,0,*69
1509357980.73,38454,8.56,71960.5,-12.13,-14.11,-14.01,0,*6E
1509357981.99,38455,8.56,71958.3,-12.13,-14.51,-14.43,0,*6D
1509357983.21,38456,8.56,71964.3,-12.13,-14.11,-13.93,0,*60
1509357984.44,38457,8.56,71974.3,-12.13,-14.43,-14.29,0,*60
1509357985.66,38458,8.56,72000.5,-12.13,-14.29,-14.23,0,*69
1509357986.88,38459,8.56,72010.3,-12.13,-14.15,-14.11,0,*66
1509357988.11,38460,8.56,72004.0,-12.17,-14.61,-14.43,0,*6C
1509357989.34,38461,8.56,71998.8,-12.13,-14.65,-14.51,0,*6E
1509357990.56,38462,8.56,71994.5,-12.13,-14.29,-14.23,0,*60
1509357991.8,38463,8.56,71996.5,-12.13,-14.43,-14.37,0,*68
1509357993.02,38464,8.56,71998.0,-12.13,-14.23,-14.15,0,*69
1509357994.32,38465,8.56,72002.0,-12.11,-14.01,-13.97,0,*67
1509357995.61,38466,8.56,72002.8,-12.11,-13.83,-13.79,0,*69
1509357996.91,38467,8.56,72002.3,-12.11,-14.01,-13.97,0,*65
1509357998.17,38468,8.56,72006.0,-12.11,-13.83,-13.69,0,*66
1509357999.46,38469,8.56,72002.0,-12.11,-13.97,-13.83,0,*66
1509358000.69,38470,8.56,72002.8,-12.09,-13.93,-13.83,0,*63
1509358001.96,38471,8.56,72006.5,-12.11,-13.97,-13.93,0,*6E
1509358003.22,38472,8.56,72022.3,-12.09,-13.83,-13.79,0,*65
1509358004.49,38473,8.56,72042.3,-12.09,-14.01,-14.01,0,*61
1509358005.71,38474,8.56,72062.5,-12.09,-14.15,-14.23,0,*63
1509358006.92,38475,8.56,72036.0,-12.09,-14.37,-14.37,0,*67
1509358008.13,38476,8.56,72028.3,-12.09,-14.37,-14.37,0,*64
1509358009.34,38477,8.56,72036.0,-12.09,-14.29,-14.15,0,*6A
1509358010.64,38478,8.56,72030.3,-12.11,-14.01,-13.97,0,*6B
1509358011.88,38479,8.56,72012.0,-12.09,-14.11,-14.01,0,*6A
1509358013.16,38480,8.56,72016.8,-12.09,-13.97,-13.97,0,*6D
1509358014.4,38481,8.56,72032.0,-12.09,-14.11,-14.01,0,*6D
1509358015.63,38482,8.56,72040.3,-12.07,-13.93,-13.93,0,*61
1509358016.87,38483,8.56,72050.0,-12.07,-14.33,-14.19,0,*68
1509358018.14,38484,8.56,72044.0,-12.07,-14.51,-14.65,0,*60
1509358019.43,38485,8.56,72036.0,-12.07,-14.97,-14.97,0,*66
1509358020.66,38486,8.56,72034.5,-12.07,-15.11,-15.07,0,*62
1509358021.91,38487,8.56,72030.5,-12.07,-15.67,-15.49,0,*68
1509358023.15,38488,8.56,72022.3,-12.07,-15.75,-15.63,0,*6C
1509358024.41,38489,8.56,72002.3,-12.09,-15.81,-15.85,0,*60
1509358025.65,38490,8.56,72000.3,-12.11,-15.15,-15.11,0,*61
1509358026.92,38491,8.56,72012.3,-12.11,-15.01,-14.89,0,*65
1509358028.16,38492,8.56,72018.3,-12.11,-15.25,-15.25,0,*67
1509358029.45,38493,8.56,72012.5,-12.11,-15.01,-14.83,0,*6D
1509358030.66,38494,8.56,71992.8,-12.13,-15.11,-15.25,0,*64
1509358031.92,38495,8.56,71978.8,-12.13,-14.55,-14.43,0,*65
1509358033.18,38496,8.56,71960.0,-12.17,-15.01,-15.01,0,*65
1509358034.42,38497,8.56,71944.3,-12.13,-14.79,-14.65,0,*6D
1509358035.66,38498,8.56,71920.0,-12.13,-14.51,-14.37,0,*6F
1509358036.9,38499,8.56,71912.5,-12.13,-14.89,-14.83,0,*64
1509358038.14,38500,8.56,71902.8,-12.13,-15.15,-14.93,0,*60
1509358039.43,38501,8.56,71904.5,-12.11,-14.79,-14.79,0,*6C
1509358040.65,38502,8.56,71908.3,-12.13,-14.29,-14.15,0,*62
1509358041.86,38503,8.56,71924.5,-12.13,-14.29,-14.15,0,*63
1509358043.08,38504,8.56,71942.8,-12.13,-14.15,-14.11,0,*6F
1509358044.3,38505,8.56,71956.5,-12.13,-14.11,-14.15,0,*6E
1509358045.51,38506,8.56,71980.8,-12.13,-14.29,-14.23,0,*63
1509358046.74,38507,8.56,72002.0,-12.13,-14.15,-14.15,0,*68
1509358048.01,38508,8.56,72012.5,-12.13,-13.97,-13.97,0,*67
1509358049.23,38509,8.56,72012.8,-12.13,-14.15,-14.11,0,*62
1509358050.49,38510,8.56,72012.8,-12.11,-14.65,-14.51,0,*6B
1509358051.71,38511,8.56,72016.5,-12.13,-14.37,-14.29,0,*60
1509358052.97,38512,8.56,72012.3,-12.11,-14.43,-14.29,0,*62
1509358054.27,38513,8.56,72016.5,-12.11,-14.55,-14.55,0,*6F
1509358055.5,38514,8.56,72018.3,-12.11,-14.69,-14.65,0,*64
1509358056.77,38515,8.56,72018.8,-12.13,-14.79,-14.79,0,*6B
1509358057.99,38516,8.56,72026.8,-12.11,-14.69,-14.69,0,*6A
1509358059.25,38517,8.56,72028.3,-12.17,-14.93,-14.93,0,*6D
1509358060.51,38518,8.56,72032.3,-12.17,-14.93,-14.93,0,*62
1509358061.77,38519,8.56,72040.3,-12.13,-14.79,-14.79,0,*67
1509358063.03,38520,8.56,72038.0,-12.17,-14.75,-14.75,0,*69
1509358064.28,38521,8.56,72042.0,-12.17,-14.47,-14.33,0,*6B
1509358065.56,38522,8.56,72056.3,-12.19,-14.93,-14.93,0,*65
1509358066.82,38523,8.56,72072.8,-12.19,-14.97,-15.07,0,*6C
1509358068.11,38524,8.56,72078.8,-12.19,-14.79,-14.75,0,*6F
1509358069.33,38525,8.56,72080.0,-12.21,-14.11,-14.23,0,*68
1509358070.61,38526,8.56,72074.5,-12.19,-14.79,-14.75,0,*6D
1509358071.83,38527,8.56,72076.5,-12.17,-14.33,-14.33,0,*6E
1509358073.1,38528,8.56,72084.8,-12.19,-14.51,-14.61,0,*6C
1509358074.36,38529,8.56,72084.8,-12.19,-14.65,-14.75,0,*6F
1509358075.6,38530,8.56,72076.8,-12.19,-15.75,-15.67,0,*65
1509358076.86,38531,8.56,72052.0,-12.19,-15.49,-15.35,0,*6C
1509358078.11,38532,8.56,72034.3,-12.19,-15.63,-15.49,0,*6C
1509358079.35,38533,8.56,72018.8,-12.21,-15.95,-15.81,0,*6B
1509358080.59,38534,8.56,72002.8,-12.23,-16.03,-15.99,0,*6B
1509358081.82,38535,8.56,71936.0,-12.23,-16.03,-16.03,0,*6A
1509358083.06,38536,8.56,71896.8,-12.23,-16.03,-16.03,0,*69
1509358084.3,38537,8.56,71888.5,-12.27,-15.75,-15.71,0,*68
1509358085.6,38538,8.56,71864.0,-12.27,-16.17,-16.23,0,*64
1509358086.84,38539,8.56,71830.3,-12.29,-16.51,-16.37,0,*6C
1509358088.08,38540,8.56,71786.8,-12.29,-16.09,-16.03,0,*68
1509358089.36,38541,8.56,71796.8,-12.31,-15.35,-15.25,0,*6B
1509358090.62,38542,8.56,71828.3,-12.29,-14.97,-14.75,0,*6C
1509358091.86,38543,8.56,71860.0,-12.31,-14.89,-14.65,0,*6A
1509358093.08,38544,8.56,71882.5,-12.33,-14.89,-14.65,0,*6F
1509358094.35,38545,8.56,71896.0,-12.31,-14.65,-14.47,0,*6E
1509358095.62,38546,8.56,71920.5,-12.31,-14.51,-14.37,0,*6D
1509358096.89,38547,8.56,71934.3,-12.31,-14.93,-14.89,0,*67
1509358098.18,38548,8.56,71986.5,-12.31,-14.79,-14.75,0,*6F
1509358099.45,38549,8.56,72000.8,-12.31,-14.75,-14.65,0,*63